Skip Page Navigation
NASA JPL Caltech
NASA Logo - Jet Propulsion Laboratory + View the NASA Portal
+ Near-Earth Object (NEO) Program
Search JPL
JPL Home Earth Solar System Stars & Galaxies Technology
JPL Solar System Dynamics
BODIES ORBITS EPHEMERIDES TOOLS PHYSICAL DATA DISCOVERY FAQ SITE MAP
JPL Small-Body Database Browser
Search: [ help ]  
293726 (2007 RQ17)
Classification: Apollo [NEO]          SPK-ID: 2293726
Ephemeris | Orbit Diagram | Orbital Elements | Physical Parameters | Discovery Circumstances | Close-Approach Data ]

[ hide orbit diagram ]
Orbit Diagram
Note: Make sure you have Java enabled on your browser to see the applet. This applet is provided as a 3D orbit visualization tool. The applet was implemented using 2-body methods, and hence should not be used for determining accurate long-term trajectories (over several years or decades) or planetary encounter circumstances. For accurate long-term ephemerides, please instead use our Horizons system.
Orbit Viewer

Additional Notes: the orbits shown in the applet are color coded. The planets are white lines, and the asteroid/comet is a blue line. The bright white line indicates the portion of the orbit that is above the ecliptic plane, and the darker portion is below the ecliptic plane. Likewise for the asteroid/comet orbit, the light blue indicates the portion above the ecliptic plane, and the dark blue the portion below the ecliptic plane.

Orbit Viewer applet originally written and kindly provided by Osamu Ajiki (AstroArts), and further modified by Ron Baalke (JPL).


Orbital Elements at Epoch 2456400.5 (2013-Apr-18.0) TDB
Reference: JPL 25 (heliocentric ecliptic J2000)
 Element Value Uncertainty (1-sigma)   Units 
e .3707878610413246 3.142e-08  
a 1.58213014658072 7.3623e-09 AU
q .9954954936410574 5.2769e-08 AU
i 1.998583372285242 5.5024e-06 deg
node 352.2813885846642 6.5436e-05 deg
peri 300.3848046783468 6.7302e-05 deg
M 317.7135074135611 1.1367e-05 deg
tp 2456485.880933613206
(2013-Jul-12.38093361)
2.3415e-05 JED
period 726.8783533636304
1.99
5.0737e-06
1.389e-08
d
yr
n .4952685663757899 3.457e-09 deg/d
Q 2.168764799520382 1.0092e-08 AU
  Orbit Determination Parameters
   # obs. used (total)      115  
   data-arc span      2073 days (5.68 yr)  
   first obs. used      2007-09-09  
   last obs. used      2013-05-13  
   planetary ephem.      DE405  
   SB-pert. ephem.      SB405-CPV-2  
   condition code      0  
   fit RMS      .68049  
   data source      ORB  
   producer      Otto Matic  
   solution date      2013-May-14 01:16:28  

Additional Information
 Earth MOID = .0214567 AU 
 T_jup = 4.312 
[ show covariance matrix ]

Ephemeris | Orbit Diagram | Orbital Elements | Physical Parameters | Discovery Circumstances | Close-Approach Data ]

Physical Parameter Table
Parameter Symbol Value Units Sigma Reference Notes
absolute magnitude H 22.533 mag .56017 25 autocmod 2.5c

293726 (2007 RQ17)          Discovered 2007-Sep-13 by Mt. Lemmon Survey at Mount Lemmon (G96)
Reference: 20110912/Numbers.arcLast Updated: 2011-09-14

[ show close-approach data ]
Ephemeris | Orbit Diagram | Orbital Elements | Physical Parameters | Discovery Circumstances | Close-Approach Data ]
ABOUT SSD CREDITS/AWARDS PRIVACY/COPYRIGHT GLOSSARY LINKS
FirstGov 2013-Jun-18 22:04 UT
(server date/time)  
NASA Home Page
Site Manager:   Donald K. Yeomans
Webmaster  Alan B. Chamberlin